Tracking 22879 objects as of 20-Apr-2021
HD Live streaming from Space Station
objects crossing your sky now

NSAT 110

Track NSAT 110 now!
NSAT 110 is classified as:


NORAD ID: 26559
Int'l Code: 2000-060A
Perigee: 36,065.0 km
Apogee: 36,141.4 km
Inclination: 2.0 °
Period: 1,451.9 minutes
Semi major axis: 42474 km
RCS: 12.5892 m2 (large)
Launch date: October 6, 2000
Source: Japan (JPN)
Launch site: FRENCH GUIANA (FRGUI)

24 Ku-band; voice and video communications to Japan.
aabbcc
Your satellite tracking list
Your tracking list is empty




NASA's NSSDC Master Catalog

Two Line Element Set (TLE):
1 26559U 00060A   21109.90168764  .00000009  00000-0  00000-0 0  9996
2 26559   1.9995  90.9939 0008991 340.2447 186.6118  0.99177947 75132
Source of the keplerian elements: AFSPC